Regional Weather Roundup
Issued by NWS

Home | Current Version | Previous Version | Text Only | Print | Product List | Glossary Off
Versions: 1 2 3 4 5 6 7 8 9 10 11 12 13 14 15 16 17 18 19 20 21 22 23 24 25 26 27 28 29 30 31 32 33 34 35 36 37 38 39 40 41 42 43 44 45 46 47 48 49 50

000
ASUS43 KMKX 120320
RWRWI

WISCONSIN REGIONAL WEATHER ROUNDUP
NATIONAL WEATHER SERVICE MILWAUKEE/SULLIVAN WI
900 PM CST MON DEC 11 2017

NOTE: "FAIR" INDICATES FEW OR NO CLOUDS BELOW 12,000 FEET WITH NO
SIGNIFICANT WEATHER AND/OR OBSTRUCTIONS TO VISIBILITY.

WIZ001-002-006>008-014>016-023>028-120400-
NORTHWEST WISCONSIN

CITY           SKY/WX    TMP DP  RH WIND       PRES   REMARKS
SUPERIOR ARPT  PTCLDY    16   7  67 NW14      30.16R WCI   1
ASHLAND        CLOUDY    16   7  67 NW14G24   30.11R WCI   2
HAYWARD        MOCLDY    16   6  65 N10G18    30.09R WCI   4
SIREN          PTCLDY    16   8  70 N8        30.15R WCI   6
CUMBERLAND     CLEAR     16   7  67 N17G23    30.10R WCI   0
RICE LAKE      MOCLDY    18  10  70 NW5       30.12R WCI  11
CHETEK         CLEAR     17   9  71 NW10G17   30.10R WCI   5
LADYSMITH      PTCLDY    18   9  68 N17G23    30.06R WCI   3
EAU CLAIRE     CLEAR     19   8  62 N16G24    30.09R WCI   4
MENOMONIE      CLEAR     21  10  64 NW13      30.12R WCI   8
NEW RICHMOND   CLEAR     18   8  66 NW12G17   30.14R WCI   5
OSCEOLA        CLEAR     19  10  69 NW12      30.19R WCI   6
$$

WIZ003>005-009-010-017-018-120400-
NORTH CENTRAL WISCONSIN

CITY           SKY/WX    TMP DP  RH WIND       PRES   REMARKS
MANITOWISH WTR FLURRIES  15   9  77 NW10G20   29.95R WCI   2
ARBOR VITAE    LGT SNOW  17  13  84 N10G16    29.94R WCI   4
WOODRUFF       LGT SNOW  17  13  84 N10G16    29.94R WCI   4
RHINELANDER    LGT SNOW  16  10  77 N12G22    29.92R WCI   3
EAGLE RIVER    LGT SNOW  15  10  80 N13       29.91R WCI   2
LAND O LAKES   CLOUDY    16   8  72 N20G28    29.93R WCI  -1
PHILLIPS       FLURRIES  15   6  69 N17G28    29.99R WCI  -1
TOMAHAWK       CLOUDY    17  10  75 NW16G24   29.96R WCI   1
MEDFORD        MOCLDY    17   6  62 NW18G31   29.96R WCI   0
MERRILL        CLOUDY    19  10  68 N12G23    29.95R WCI   6
$$

WIZ029-030-035-036-043>047-120400-
CENTRAL WISCONSIN

CITY           SKY/WX    TMP DP  RH WIND       PRES   REMARKS
WAUSAU         CLOUDY    19   7  59 NW16G26   29.94R WCI   4
MOSINEE        CLOUDY    19  10  68 N23G30    29.96R WCI   2
MARSHFIELD     MOCLDY    19   9  65 NW22G28   29.97R WCI   2
STEVENS POINT  CLOUDY    21   9  61 NW16      29.96R WCI   7
WAUPACA        CLOUDY    26  11  53 NW14G24   29.94R WCI  14
WAUTOMA        FLURRIES  25  15  66 NW18G28   29.95R WCI  11
WISC RAPIDS    PTCLDY    22   9  57 N23G31    29.99R WCI   6
CAMP DOUGLAS   FLURRIES  25  10  54 NW17G30   29.99R WCI  11
$$

WIZ011>013-019>022-031-037>040-048>050-120400-
NORTHEAST WISCONSIN

CITY           SKY/WX    TMP DP  RH WIND       PRES   REMARKS
ANTIGO         LGT SNOW  17  13  82 N22       29.90R WCI   0
SHAWANO        CLOUDY    25  12  59 NW13G25   29.92R WCI  13
OCONTO         CLOUDY    23  13  65 N13G21    29.89R WCI  11
STURGEON BAY   CLOUDY    23  12  62 NW21G37   29.86R WCI   8
GREEN BAY      FLURRIES  26  14  60 N23G31    29.89R WCI  11
MANITOWOC      FLURRIES  27  16  63 N16G31    29.87R WCI  14
APPLETON       CLOUDY    25   9  50 NW23G29   29.88R WCI  10
CLINTONVILLE   CLOUDY    25  10  54 N14G24    29.91R WCI  13
OSHKOSH        FLURRIES  26  15  63 NW22G30   29.89R WCI  12
$$

WIZ032>034-041-042-053>061-120400-
SOUTHWEST WISCONSIN

CITY           SKY/WX    TMP DP  RH WIND       PRES   REMARKS
LA CROSSE      PTCLDY    25  13  60 N18G28    30.06R WCI  11
SPARTA         CLOUDY    25  16  68 NW15G26   30.04R WCI  13
VIROQUA        CLOUDY    25  16  69 N16G30    29.99R WCI  12
BOSCOBEL       CLOUDY    32  20  61 N12G23    30.00R WCI  23
PRAIRIE DU CHI CLOUDY    31  18  58 NW20G28   30.02R WCI  18
PLATTEVILLE    CLOUDY    32  25  75 NW18      29.95R WCI  20
$$

WIZ056-057-062-063-064-067-068-120400-
SOUTH CENTRAL WISCONSIN

CITY           SKY/WX    TMP DP  RH WIND       PRES   REMARKS
REEDSBURG      CLOUDY    27  16  61 NW20G28   29.96R WCI  14
BARABOO/DELLS  CLOUDY    28  16  61 NW15      29.95R WCI  16
LONE ROCK      CLOUDY    31  19  61 NW17G38   29.97R WCI  19
MINERAL POINT  CLOUDY    32  23  69 NW23G32   29.93R WCI  19
MADISON        CLOUDY    30  21  69 NW8G23    29.91R WCI  22
MIDDLETON      CLOUDY    32  22  66 N17       29.92R WCI  20
WATERTOWN      CLOUDY    30  23  75 NW15G21   29.88R WCI  19
MONROE         CLOUDY    32  21  64 N17G30    29.90R WCI  21
JANESVILLE     CLOUDY    34  25  69 NW15G21   29.89R WCI  24
$$

WIZ051-052-058>065-066-070>072-120400-
SOUTHEAST WISCONSIN

CITY           SKY/WX    TMP DP  RH WIND       PRES   REMARKS
MILWAUKEE      CLOUDY    31  24  75 NW16G35   29.85R WCI  20
WAUKESHA       CLOUDY    27  21  80 NW16G25   29.86R WCI  14
MILWAUKEE/TIMM CLOUDY    28  21  74 NW12G23   29.86R WCI  18
RACINE         CLOUDY    31  24  75 N15G28    29.86R WCI  20
BURLINGTON     CLOUDY    41  38  91 N15G28    29.87R
KENOSHA        CLOUDY    31  24  75 N14G26    29.84R WCI  21
FOND DU LAC    CLOUDY    28  16  60 NW22G36   29.88R WCI  14
SHEBOYGAN      CLOUDY    29  21  72 N20G26    29.84R WCI  16
WEST BEND      CLOUDY    30  23  74 NW13G22   29.85R WCI  20
JUNEAU         CLOUDY    29  19  67 NW15G23   29.89R WCI  18
$$

LSZ147-162-120400-
LAKE SUPERIOR

STATION/POSITION TIME  TEMP    WIND        PRES    WAVE
                       AIR SEA DIR/SP/G            HT/PER
                 (UTC) (F)     (DEG/KT/KT) (MB)    (FT/S)
DEVILS ISLAND    0300   16     330/ 26/ 32 1021.2R
SAXON HARBOR     0255   21                 1018.3R
$$

LMZ867-665-643>646-120400-
LAKE MICHIGAN

STATION/POSITION TIME  TEMP    WIND        PRES    WAVE
                       AIR SEA DIR/SP/G            HT/PER
                 (UTC) (F)     (DEG/KT/KT) (MB)    (FT/S)
NORTHPORT PIER   0259   26     320/ 33/ 35 1010.5R
KEWAUNEE LAKESHO 0254   25     340/ 15/ 23 1010.2R
SHEBOYGAN LAKESH 0300   30     320/ 18/ 22 1011.3R
PORT WASHINGTON  0240   30     310/  7/ 14 1011.9R
MILWAUKEE LAKESH 0300   31     320/ 10/ 13   N/A
KENOSHA   LAKESH 0300   31     340/ 21/ 28 1010.5
$$

TC  - TEMPERATURE IN CELSIUS
VSB - VISIBILITY IN STATUTE MILES
WCI - WIND CHILL INDEX
HX  - HEAT INDEX





USA.gov is the U.S. government's official web portal to all federal, state and local government web resources and services.